This is the latest recevied weather packets stored in our database for station/object WR9A-13. If no packets are shown the sender has not sent any weather packets the latest 10 day(s).
| Time | Temp. | Humidity | Pressure | Rain* | Wind** | Luminosity | Snow |
|---|---|---|---|---|---|---|---|
| 1777844429 | 17.22° C | 52% | 1011.3 hPa | 0 mm | - | - | - |
| 1777844126 | 17.22° C | 51% | 1011.4 hPa | 0 mm | - | - | - |
| 1777843814 | 17.78° C | 50% | 1011.4 hPa | 0 mm | - | - | - |
| 1777843531 | 17.78° C | 49% | 1011.4 hPa | 0 mm | - | - | - |
| 1777843219 | 18.33° C | 49% | 1011.3 hPa | 0 mm | - | - | - |
| 1777842936 | 18.33° C | 49% | 1011.5 hPa | 0 mm | - | - | - |
| 1777842624 | 17.78° C | 53% | 1011.6 hPa | 0 mm | - | - | - |
| 1777842341 | 17.22° C | 51% | 1011.6 hPa | 0 mm | - | - | - |
| 1777842020 | 17.22° C | 50% | 1011.7 hPa | 0 mm | - | - | - |
| 1777841716 | 17.22° C | 51% | 1011.7 hPa | 0 mm | - | - | - |
| 1777841435 | 16.67° C | 53% | 1011.8 hPa | 0 mm | - | - | - |
| 1777841122 | 16.67° C | 51% | 1011.8 hPa | 0 mm | - | - | - |
| 1777840838 | 16.67° C | 52% | 1012.1 hPa | 0 mm | - | - | - |
| 1777840526 | 16.67° C | 52% | 1012.3 hPa | 0 mm | - | - | - |
| 1777840243 | 16.67° C | 52% | 1012.4 hPa | 0 mm | - | - | - |
| 1777839930 | 16.67° C | 51% | 1012.6 hPa | 0 mm | - | - | - |
| 1777839618 | 17.22° C | 50% | 1012.6 hPa | 0 mm | - | - | - |
| 1777839314 | 17.22° C | 50% | 1012.7 hPa | 0 mm | - | - | - |
| 1777839032 | 17.22° C | 51% | 1012.8 hPa | 0 mm | - | - | - |
| 1777838719 | 17.22° C | 51% | 1012.7 hPa | 0 mm | - | - | - |
| 1777838429 | 17.22° C | 50% | 1013.1 hPa | 0 mm | - | - | - |
| 1777838116 | 17.22° C | 49% | 1013.2 hPa | 0 mm | - | - | - |
| 1777837832 | 17.78° C | 49% | 1013.3 hPa | 0 mm | - | - | - |
| 1777837519 | 17.78° C | 49% | 1013.3 hPa | 0 mm | - | - | - |
| 1777837215 | 17.78° C | 48% | 1013.6 hPa | 0 mm | - | - | - |
* Rain latest hour (hover to see other rain measurements)
** Current wind speed in m/s (hover to see current wind gust speed)